Home > Time Zones > World Clock > Weather > U.S.A. > Reno > Past weeks

Flag for U.S.A. Weather past 2 weeks in Reno, Nevada, U.S.A.

Now
55 °F

Broken clouds.


Feels Like: 52 °F
Forecast: 42 / 56 °F
Wind: 10 mph from Northwest

Location: Reno Tahoe International Airport

Current Time: Dec 21, 2014 at 9:40:39 AM

Latest Report: Dec 21, 2014 at 8:55 AM


Visibility: 10 mi

Pressure: 30.15 "Hg

Humidity: 55%

Dew point: 39 °F

Location of RenoLocation

Historic Weather in Reno — Graph

°F

Reno temperature yesterday

Maximum temperature yesterday: 52 °F (at 11:55 PM)
Minimum temperature yesterday: 40 °F (at 1:55 AM)
Average temperature yesterday: 46 °F

Past Weeks' High & Low Weather Summary

 TemperatureHumidityPressure
High62 °F (Dec 11, 10:55 AM)100% (Dec 15, 9:55 AM)30.31 "Hg (Dec 15, 9:55 AM)
Low26 °F (Dec 14, 1:55 AM)21% (Dec 11, 6:55 AM)29.44 "Hg (Dec 11, 11:55 AM)
Average42 °F69%30.02 "Hg
* Reported Dec 6 7:55 AM — Dec 21 7:55 AM, Reno, Weather by CustomWeather, © 2014

Note: Actual official high and low records may vary slightly from our data, if they occured in-between our weather recording intervals... More about our weather records

Advertising

Reno weather history for previous 24 hours

 ConditionsComfort  
Time TempWeatherWind HumidityBarometerVisibility
7:55 AM
Dec 21
54 °FBroken clouds.17 mph59%30.13 "Hg10 mi
6:55 AM54 °FPartly cloudy.15 mph59%30.07 "Hg10 mi
5:55 AM54 °FPartly cloudy.20 mph59%30.06 "Hg10 mi
4:55 AM54 °FPassing clouds.22 mph59%30.06 "Hg10 mi
3:55 AM53 °FPassing clouds.17 mph61%30.07 "Hg10 mi
2:55 AM53 °FPartly cloudy.14 mph59%30.08 "Hg10 mi
1:55 AM52 °FPassing clouds.13 mph61%30.09 "Hg10 mi
12:55 AM52 °FPassing clouds.15 mph59%30.09 "Hg10 mi
11:55 PM
Dec 20
52 °FMostly cloudy.13 mph59%30.10 "Hg10 mi
10:55 PM51 °FPassing clouds.14 mph59%30.10 "Hg10 mi
9:55 PM51 °FMostly cloudy.18 mph59%30.11 "Hg10 mi
8:55 PM50 °FPartly cloudy.7 mph59%30.11 "Hg10 mi
7:55 PM46 °FPartly cloudy.3 mph66%30.10 "Hg10 mi
6:55 PM49 °FOvercast.6 mph59%30.08 "Hg10 mi
5:55 PM49 °FOvercast.No wind57%30.09 "Hg10 mi
4:55 PM48 °FOvercast.5 mph61%30.05 "Hg10 mi
3:55 PM50 °FCloudy.8 mph54%30.05 "Hg10 mi
2:55 PM50 °FBroken clouds.10 mph52%30.03 "Hg10 mi
1:55 PM49 °FCloudy.10 mph57%30.04 "Hg10 mi
12:55 PM49 °FCloudy.5 mph55%30.03 "Hg10 mi
11:55 AM47 °FCloudy.9 mph71%30.04 "Hg10 mi
10:55 AM46 °FMostly cloudy.9 mph68%30.09 "Hg10 mi
9:55 AM45 °FMostly cloudy.8 mph68%30.09 "Hg10 mi
Weather by CustomWeather, © 2014

See weather overviewHow to use our weather pages